Weather History for Winfield, KS

Change the Weather History Date:

Monday, November 19, 2012

  Actual Average Record
Temperature  
Mean Temperature 57 °F -  
Max Temperature 68 °F 54 °F 77 °F (2007)
Min Temperature 44 °F 34 °F 28 °F (2000)
Degree Days  
Heating Degree Days 8    
Growing Degree Days 7 (Base 50)    
Moisture  
Dew Point 47 °F    
Average Humidity 76    
Maximum Humidity 96    
Minimum Humidity 59    
Precipitation  
Precipitation 0.03 in - - ()
Sea Level Pressure  
Sea Level Pressure 30.12 in    
Wind  
Wind Speed 10 mph (South)    
Max Wind Speed 18 mph    
Max Gust Speed -    
Visibility 10 miles    
Events Rain    
Averages and records for this station are not official NWS values.
T = Trace of Precipitation, MM = Missing Value Source: NWS Daily Summary

Daily Weather History Graph

Daily Weather History Graph

Search for Another Location

Airport:

Trip Planner

Search our weather history database for the weather conditions in past years. The results will help you decide how hot, cold, wet, or windy it might be!

Date:

Astronomy

Nov. 19, 2012 Rise Set
Actual Time 7:11 AM CST 5:15 PM CST
Civil Twilight 6:43 AM CST 5:43 PM CST
Nautical Twilight 6:12 AM CST 6:14 PM CST
Astronomical Twilight 5:41 AM CST 6:45 PM CST
Moon 12:18 PM CST (11/19) 11:40 PM CST (11/19)
Length of Visible Light 10h 59m
Length of Day
10h 03m
Waxing Crescent, 41% of the Moon is Illuminated
Nov 19
Waxing Crescent
Nov 20
First Quarter
Nov 28
Full
Dec 6
Last Quarter
Dec 13
New

Hourly Weather History & Observations

Time (CST) Temp. Dew Point Humidity Pressure Visibility Wind Dir Wind Speed Gust Speed Precip Events Conditions
12:54 AM 50.0 °F 45.0 °F 83% 30.12 in 10.0 mi South 18.4 mph - 0.03 in Rain Light Rain
1:54 AM 50.0 °F 45.0 °F 83% 30.11 in 10.0 mi South 16.1 mph - 0.00 in   Overcast
2:54 AM 50.0 °F 44.1 °F 80% 30.11 in 10.0 mi SSE 12.7 mph - N/A   Scattered Clouds
3:54 AM 50.0 °F 44.1 °F 80% 30.09 in 10.0 mi SSE 15.0 mph - N/A   Clear
4:54 AM 50.0 °F 43.0 °F 77% 30.09 in 10.0 mi SSE 13.8 mph - N/A   Clear
5:54 AM 48.9 °F 42.1 °F 77% 30.10 in 10.0 mi SSE 5.8 mph - N/A   Clear
6:54 AM 48.0 °F 42.1 °F 80% 30.11 in 10.0 mi SE 5.8 mph - N/A   Clear
7:54 AM 48.0 °F 43.0 °F 83% 30.13 in 10.0 mi SSE 5.8 mph - N/A   Clear
8:54 AM 53.1 °F 44.1 °F 71% 30.14 in 10.0 mi South 11.5 mph - N/A   Clear
9:54 AM 57.0 °F 45.0 °F 64% 30.14 in 10.0 mi South 9.2 mph - N/A   Clear
10:54 AM 60.1 °F 48.0 °F 64% 30.14 in 10.0 mi SSW 10.4 mph - N/A   Clear
11:54 AM 64.0 °F 50.0 °F 60% 30.13 in - SSW 5.8 mph - N/A   Clear
12:54 PM 64.9 °F 51.1 °F 61% 30.11 in 10.0 mi West 5.8 mph - N/A   Clear
1:54 PM 66.0 °F 52.0 °F 60% 30.09 in 10.0 mi South 4.6 mph - N/A   Clear
2:54 PM 68.0 °F 53.1 °F 59% 30.09 in 10.0 mi SW 8.1 mph - N/A   Clear
3:54 PM 68.0 °F 53.1 °F 59% 30.09 in 10.0 mi SSW 6.9 mph - N/A   Clear
4:54 PM 63.0 °F 53.1 °F 70% 30.09 in 10.0 mi SSW 6.9 mph - N/A   Clear
5:54 PM 55.0 °F 50.0 °F 83% 30.13 in 10.0 mi Calm Calm - N/A   Clear
6:54 PM 52.0 °F 48.0 °F 86% 30.15 in 10.0 mi Calm Calm - N/A   Clear
7:54 PM 48.9 °F 46.9 °F 93% 30.15 in 10.0 mi Calm Calm - N/A   Clear
9:54 PM 48.0 °F 46.9 °F 96% 30.15 in 8.0 mi Calm Calm - N/A   Clear
10:54 PM 46.0 °F 44.1 °F 93% 30.16 in 7.0 mi Calm Calm - N/A   Clear
11:54 PM 44.1 °F 42.1 °F 93% 30.16 in 6.0 mi Calm Calm - N/A   Clear